When you browse on this site, cookies collect data to enhance your experience and personalize the content and advertising you see.
Visit our Privacy Policy to learn more. By continuing to use the site, you agree to this use of cookies and data.
  • In Hungary
  • List of Countries
  • For 7 days
  • Water Temperature
  • Weather Map
  • News
  • Weather Widgets
  • user-avatar
    Login

    Hourly Weather Novoasbest

    Today, 18 January, Saturday

    Time Temperature Precipitation Wind Pressure Humidity
    00:00 -14°C° 0 mm 1 mps 738 mmHg 90%
    01:00 -16°C° 0 mm 2 mps 738 mmHg 92%
    02:00 -16°C° 0 mm 2 mps 738 mmHg 92%
    03:00 -16°C° 0 mm 2 mps 737 mmHg 92%
    04:00 -16°C° 0 mm 2 mps 737 mmHg 90%
    05:00 -15°C° 0 mm 2 mps 737 mmHg 89%
    06:00 -15°C° 0 mm 2 mps 736 mmHg 88%
    07:00 -14°C° 0 mm 2 mps 735 mmHg 87%
    08:00 -13°C° 0 mm 3 mps 735 mmHg 87%
    09:00 -11°C° 0 mm 4 mps 735 mmHg 87%
    10:00 -10°C° 0 mm 5 mps 735 mmHg 86%
    11:00 -8°C° 0 mm 5 mps 734 mmHg 85%
    12:00 -7°C° 0 mm 5 mps 734 mmHg 84%
    13:00 -5°C° 0 mm 6 mps 733 mmHg 83%
    14:00 -6°C° 0 mm 5 mps 733 mmHg 85%
    15:00 -6°C° 0 mm 5 mps 733 mmHg 86%
    16:00 -5°C° 0 mm 4 mps 733 mmHg 88%
    17:00 -5°C° 0 mm 4 mps 734 mmHg 88%
    18:00 -5°C° 0 mm 4 mps 734 mmHg 89%
    19:00 -7°C° 0 mm 4 mps 734 mmHg 89%
    20:00 -7°C° 0 mm 3 mps 735 mmHg 90%
    21:00 -8°C° 0 mm 3 mps 736 mmHg 91%
    22:00 -8°C° 0 mm 2 mps 736 mmHg 91%
    23:00 -9°C° 0 mm 2 mps 737 mmHg 92%

    Tomorrow, 19 January, Sunday

    Time Temperature Precipitation Wind Pressure Humidity
    00:00 -10°C° 0 mm 1 mps 737 mmHg 92%
    01:00 -11°C° 0 mm 1 mps 737 mmHg 93%
    02:00 -12°C° 0 mm 1 mps 738 mmHg 92%
    03:00 -13°C° 0 mm 1 mps 738 mmHg 92%
    04:00 -13°C° 0 mm 1 mps 739 mmHg 92%
    05:00 -14°C° 0 mm 1 mps 739 mmHg 91%
    06:00 -14°C° 0 mm 1 mps 739 mmHg 89%
    07:00 -15°C° 0 mm 1 mps 739 mmHg 88%
    08:00 -15°C° 0 mm 1 mps 739 mmHg 86%
    09:00 -14°C° 0 mm 1 mps 739 mmHg 85%
    10:00 -14°C° 0 mm 1 mps 740 mmHg 83%
    11:00 -13°C° 0 mm 1 mps 739 mmHg 81%
    12:00 -11°C° 0 mm 1 mps 739 mmHg 79%
    13:00 -10°C° 0 mm 1 mps 739 mmHg 77%
    14:00 -10°C° 0 mm 0 mps 739 mmHg 80%
    15:00 -10°C° 0 mm 0 mps 739 mmHg 83%
    16:00 -11°C° 0 mm 0 mps 739 mmHg 86%
    17:00 -11°C° 0.1 mm 0 mps 739 mmHg 89%
    18:00 -10°C° 0.1 mm 1 mps 739 mmHg 91%
    19:00 -10°C° 0.1 mm 1 mps 739 mmHg 94%
    20:00 -10°C° 0.2 mm 1 mps 739 mmHg 94%
    21:00 -12°C° 0.2 mm 2 mps 739 mmHg 94%
    22:00 -12°C° 0.2 mm 2 mps 739 mmHg 95%
    23:00 -12°C° 0.2 mm 2 mps 738 mmHg 95%

    Day after tomorrow, 20 January, Monday

    Time Temperature Precipitation Wind Pressure Humidity
    00:00 -12°C° 0.2 mm 2 mps 738 mmHg 95%
    01:00 -12°C° 0.2 mm 2 mps 737 mmHg 95%
    02:00 -10°C° 0.3 mm 2 mps 737 mmHg 95%
    03:00 -10°C° 0.3 mm 2 mps 737 mmHg 95%
    04:00 -10°C° 0.3 mm 2 mps 736 mmHg 95%
    05:00 -10°C° 0.2 mm 2 mps 736 mmHg 95%
    06:00 -10°C° 0.2 mm 2 mps 735 mmHg 95%
    07:00 -10°C° 0.2 mm 2 mps 735 mmHg 95%
    08:00 -12°C° 0.3 mm 2 mps 735 mmHg 94%
    09:00 -12°C° 0.3 mm 2 mps 735 mmHg 94%
    10:00 -12°C° 0.3 mm 2 mps 735 mmHg 94%
    11:00 -12°C° 0.1 mm 2 mps 735 mmHg 93%
    12:00 -12°C° 0.1 mm 2 mps 734 mmHg 93%
    13:00 -12°C° 0.1 mm 2 mps 734 mmHg 92%
    14:00 -13°C° 0 mm 2 mps 734 mmHg 93%
    15:00 -14°C° 0 mm 2 mps 735 mmHg 95%
    16:00 -12°C° 0 mm 1 mps 735 mmHg 96%
    17:00 -13°C° 0 mm 1 mps 735 mmHg 97%
    18:00 -14°C° 0 mm 1 mps 735 mmHg 97%
    19:00 -15°C° 0 mm 1 mps 735 mmHg 98%
    20:00 -16°C° 0 mm 1 mps 735 mmHg 98%
    21:00 -17°C° 0 mm 1 mps 735 mmHg 98%
    22:00 -17°C° 0 mm 1 mps 735 mmHg 98%
    23:00 -18°C° 0 mm 1 mps 735 mmHg 98%

    21 January, Tuesday

    Time Temperature Precipitation Wind Pressure Humidity
    00:00 -18°C° 0 mm 0 mps 734 mmHg 99%
    01:00 -18°C° 0 mm 0 mps 734 mmHg 99%
    02:00 -18°C° 0 mm 0 mps 734 mmHg 99%
    03:00 -18°C° 0 mm 1 mps 734 mmHg 98%
    04:00 -18°C° 0 mm 1 mps 734 mmHg 98%
    05:00 -18°C° 0 mm 1 mps 734 mmHg 98%
    06:00 -18°C° 0 mm 1 mps 733 mmHg 98%
    07:00 -18°C° 0 mm 1 mps 733 mmHg 98%
    08:00 -19°C° 0 mm 2 mps 733 mmHg 97%
    09:00 -18°C° 0 mm 2 mps 733 mmHg 95%
    10:00 -17°C° 0 mm 2 mps 733 mmHg 94%
    11:00 -17°C° 0 mm 3 mps 732 mmHg 93%
    12:00 -15°C° 0 mm 3 mps 731 mmHg 91%
    13:00 -14°C° 0 mm 3 mps 731 mmHg 90%
    14:00 -14°C° 0 mm 3 mps 730 mmHg 91%
    15:00 -15°C° 0 mm 3 mps 730 mmHg 92%
    16:00 -16°C° 0 mm 3 mps 729 mmHg 93%
    17:00 -16°C° 0 mm 3 mps 728 mmHg 93%
    18:00 -17°C° 0 mm 4 mps 727 mmHg 93%
    19:00 -17°C° 0 mm 4 mps 726 mmHg 94%
    20:00 -16°C° 0 mm 4 mps 725 mmHg 93%
    21:00 -16°C° 0 mm 4 mps 725 mmHg 93%
    22:00 -16°C° 0 mm 4 mps 724 mmHg 93%
    23:00 -15°C° 0 mm 4 mps 723 mmHg 92%

    22 January, Wednesday

    Time Temperature Precipitation Wind Pressure Humidity
    00:00 -14°C° 0 mm 4 mps 722 mmHg 91%
    01:00 -13°C° 0 mm 5 mps 721 mmHg 90%
    02:00 -12°C° 0.1 mm 5 mps 720 mmHg 91%
    03:00 -11°C° 0.1 mm 5 mps 719 mmHg 91%
    04:00 -11°C° 0.1 mm 5 mps 718 mmHg 91%
    05:00 -10°C° 0.2 mm 5 mps 717 mmHg 91%
    06:00 -10°C° 0.2 mm 5 mps 716 mmHg 91%
    07:00 -9°C° 0.2 mm 4 mps 716 mmHg 90%
    08:00 -9°C° 0 mm 4 mps 715 mmHg 89%
    09:00 -9°C° 0 mm 4 mps 714 mmHg 88%
    10:00 -9°C° 0 mm 4 mps 714 mmHg 87%
    11:00 -8°C° 0 mm 4 mps 713 mmHg 88%
    12:00 -7°C° 0 mm 3 mps 713 mmHg 89%
    13:00 -6°C° 0 mm 3 mps 713 mmHg 89%
    14:00 -6°C° 0 mm 3 mps 712 mmHg 91%
    15:00 -6°C° 0 mm 2 mps 712 mmHg 93%
    16:00 -6°C° 0 mm 2 mps 711 mmHg 94%
    17:00 -6°C° 0 mm 2 mps 711 mmHg 94%
    18:00 -6°C° 0 mm 2 mps 710 mmHg 94%
    19:00 -6°C° 0 mm 2 mps 710 mmHg 94%
    20:00 -6°C° 0 mm 2 mps 710 mmHg 95%
    21:00 -6°C° 0 mm 2 mps 709 mmHg 95%
    22:00 -6°C° 0 mm 2 mps 708 mmHg 96%
    23:00 -4°C° 0.2 mm 1 mps 708 mmHg 96%

    23 January, Thursday

    Time Temperature Precipitation Wind Pressure Humidity
    00:00 -4°C° 0.2 mm 1 mps 707 mmHg 96%
    01:00 -4°C° 0.2 mm 1 mps 707 mmHg 97%
    02:00 -4°C° 0.9 mm 1 mps 707 mmHg 97%
    03:00 -4°C° 0.9 mm 1 mps 707 mmHg 97%
    04:00 -4°C° 0.9 mm 1 mps 707 mmHg 96%
    05:00 -7°C° 0.3 mm 3 mps 707 mmHg 95%
    06:00 -9°C° 0.3 mm 4 mps 708 mmHg 93%
    07:00 -10°C° 0.3 mm 5 mps 709 mmHg 92%
    08:00 -11°C° 0.1 mm 5 mps 709 mmHg 89%
    09:00 -11°C° 0.1 mm 6 mps 710 mmHg 87%
    10:00 -12°C° 0.1 mm 6 mps 711 mmHg 85%
    11:00 -12°C° 0 mm 6 mps 712 mmHg 85%
    12:00 -12°C° 0 mm 5 mps 713 mmHg 85%
    13:00 -13°C° 0 mm 5 mps 714 mmHg 85%
    14:00 -13°C° 0 mm 5 mps 715 mmHg 85%
    15:00 -14°C° 0 mm 5 mps 715 mmHg 86%
    16:00 -14°C° 0 mm 4 mps 716 mmHg 86%
    17:00 -15°C° 0 mm 4 mps 717 mmHg 87%
    18:00 -16°C° 0 mm 4 mps 718 mmHg 88%
    19:00 -17°C° 0 mm 4 mps 719 mmHg 89%
    20:00 -17°C° 0 mm 4 mps 719 mmHg 90%
    21:00 -16°C° 0 mm 3 mps 719 mmHg 90%
    22:00 -17°C° 0 mm 3 mps 720 mmHg 90%
    23:00 -17°C° 0 mm 3 mps 720 mmHg 90%
    Show more